Flag for Canada Weather past 2 weeks in Richmond, British Columbia, Canada

Now
66 °F

Scattered clouds.


Feels Like: 66 °F
Forecast: 62 / 75 °F
Wind: 5 mph from South

Location: Vancouver International Air-Port

Current Time: Aug 22, 2014 at 9:18:20 PM

Latest Report: Aug 22, 2014 at 8:00 PM


Visibility: 20 mi

Pressure: 30.04 "Hg

Humidity: 83%

Dew point: 61 °F

Location of RichmondLocation

Historic Weather in Richmond — Graph

°F

Richmond temperature yesterday

Maximum temperature yesterday: 70 °F (at 6:00 PM)
Minimum temperature yesterday: 57 °F (at 4:00 AM)
Average temperature yesterday: 64 °F

Past Weeks' High & Low Weather Summary

 TemperatureHumidityPressure
High82 °F (Aug 11, 3:00 PM)100% (Aug 13, 10:00 AM)30.16 "Hg (Aug 13, 10:00 AM)
Low57 °F (Aug 8, 4:00 AM)50% (Aug 7, 7:00 PM)29.75 "Hg (Aug 19, 8:00 PM)
Average67 °F80%29.99 "Hg
* Reported Aug 7 7:00 PM — Aug 22 7:00 PM, Richmond, Weather by CustomWeather, © 2014

Note: Actual official high and low records may vary slightly from our data, if they occured in-between our weather recording intervals... More about our weather records

Advertising

Richmond weather history for previous 24 hours

 ConditionsComfort  
Time TempWeatherWind HumidityBarometerVisibility
7:00 PM
Aug 22
68 °FPartly sunny.3 mph73%30.03 "Hg20 mi
6:00 PM68 °FPartly sunny.7 mph73%30.04 "Hg20 mi
5:00 PM70 °FPartly sunny.7 mph64%30.04 "Hg20 mi
4:00 PM70 °FPartly sunny.7 mph73%30.05 "Hg20 mi
3:00 PM70 °FOvercast.9 mph69%30.06 "Hg15 mi
2:00 PM68 °FOvercast.10 mph78%30.06 "Hg20 mi
1:00 PM68 °FPartly sunny.9 mph78%30.06 "Hg20 mi
12:00 PM68 °FMostly cloudy.9 mph78%30.07 "Hg20 mi
11:46 AM66 °FPartly sunny.7 mph83%30.07 "Hg20 mi
11:00 AM66 °FPartly sunny.7 mph83%30.07 "Hg20 mi
10:00 AM64 °FOvercast.6 mph78%30.06 "Hg15 mi
9:00 AM63 °FOvercast.No wind77%30.06 "Hg15 mi
8:00 AM61 °FOvercast.3 mph83%30.05 "Hg15 mi
7:00 AM59 °FMostly cloudy.3 mph88%30.04 "Hg15 mi
6:00 AM57 °FPassing clouds.5 mph88%30.03 "Hg15 mi
5:00 AM57 °FClear.No wind94%30.03 "Hg20 mi
4:00 AM57 °FClear.3 mph88%30.02 "Hg20 mi
3:00 AM59 °FClear.5 mph82%30.01 "Hg20 mi
2:00 AM59 °FClear.5 mph82%30.01 "Hg20 mi
1:00 AM59 °FPassing clouds.No wind82%30.00 "Hg20 mi
12:00 AM63 °FPassing clouds.5 mph77%29.99 "Hg20 mi
11:00 PM
Aug 21
63 °FPassing clouds.7 mph83%29.99 "Hg20 mi
10:00 PM63 °FPartly cloudy.7 mph77%29.98 "Hg20 mi
9:00 PM64 °FPartly sunny.6 mph73%29.98 "Hg20 mi
Weather by CustomWeather, © 2014

See weather overviewHow to use our weather pages